Total_Precipitation_Accumulation
0.04 0.16 0.15 0.12 0.20 0.34 0.50 0.47 0.39 0.16 0.03 0.13 0.07 0.03 0.02 0.03 0.10 0.09 0.04 0.03 0.02 0.02 0.06 0.03 0.01 0.01 0.04 0.01 0.01 0.01 0.02 0.03 0.01 0.02 0.01 0.00 0.00 0.00 0.00 0.00 0.00 0.00 0.00 0.00
0.06 0.06 0.14 0.13 0.19 0.36 0.44 0.62 0.46 0.23 0.13 0.32 0.26 0.07 0.01 0.01 0.04 0.05 0.07 0.05 0.07 0.06 0.01 0.01 0.01 0.01 0.02 0.01 0.00 0.01 0.03 0.03 0.02 0.03 0.02 0.00 0.00 0.00 0.00 0.00 0.00 0.00 0.00 0.00
0.19 0.04 0.03 0.21 0.24 0.30 0.35 0.45 0.39 0.49 0.32 0.44 0.46 0.43 0.12 0.05 0.02 0.06 0.14 0.21 0.16 0.11 0.06 0.04 0.08 0.05 0.03 0.02 0.01 0.01 0.03 0.03 0.02 0.02 0.02 0.02 0.01 0.00 0.00 0.00 0.00 0.00 0.00 0.00
0.04 0.05 0.01 0.09 0.33 0.33 0.27 0.21 0.25 0.32 0.60 0.70 0.47 0.80 0.38 0.12 0.06 0.02 0.05 0.09 0.05 0.03 0.05 0.07 0.07 0.08 0.07 0.05 0.04 0.02 0.03 0.03 0.02 0.01 0.02 0.04 0.01 0.00 0.00 0.00 0.00 0.00 0.00 0.00
0.04 0.08 0.15 0.08 0.10 0.24 0.31 0.30 0.41 0.52 0.52 0.56 0.45 0.57 0.21 0.14 0.15 0.04 0.01 0.04 0.05 0.06 0.08 0.12 0.11 0.05 0.07 0.16 0.14 0.13 0.10 0.11 0.07 0.03 0.04 0.04 0.03 0.01 0.01 0.01 0.01 0.02 0.04 0.07
0.01 0.07 0.20 0.26 0.12 0.09 0.16 0.33 0.35 0.62 0.78 1.03 0.49 0.40 0.21 0.06 0.15 0.02 0.01 0.01 0.04 0.08 0.09 0.13 0.18 0.14 0.11 0.16 0.17 0.22 0.19 0.14 0.13 0.10 0.11 0.13 0.11 0.10 0.16 0.31 0.45 0.58 0.66 0.62
0.02 0.06 0.14 0.25 0.30 0.27 0.26 0.48 0.79 1.04 1.29 1.01 0.21 0.28 0.17 0.00 0.00 0.00 0.00 0.00 0.01 0.06 0.12 0.16 0.20 0.24 0.17 0.15 0.22 0.29 0.38 0.46 0.43 0.36 0.43 0.49 0.64 0.85 0.96 1.00 0.96 0.87 0.64 0.40
0.03 0.04 0.13 0.34 0.30 0.30 0.39 0.62 0.96 0.93 0.71 0.47 0.23 0.49 0.16 0.00 0.00 0.00 0.01 0.02 0.02 0.05 0.10 0.18 0.25 0.26 0.28 0.18 0.18 0.26 0.33 0.37 0.46 0.68 0.80 1.04 1.32 1.31 1.22 1.09 0.94 0.78 0.59 0.45
0.11 0.05 0.07 0.22 0.48 0.60 0.63 0.67 0.61 0.90 0.45 0.46 0.54 0.44 0.09 0.00 0.00 0.01 0.01 0.06 0.08 0.14 0.16 0.16 0.23 0.30 0.31 0.34 0.38 0.35 0.31 0.39 0.47 0.57 0.75 0.84 0.93 1.04 1.03 0.95 0.85 0.73 0.56 0.42
0.16 0.20 0.00 0.10 0.32 0.74 0.84 0.54 0.74 0.91 0.84 0.55 0.46 0.28 0.14 0.08 0.01 0.02 0.01 0.01 0.04 0.10 0.16 0.26 0.33 0.43 0.57 0.56 0.58 0.75 0.82 0.75 0.61 0.63 0.69 0.78 0.96 1.06 1.06 0.96 0.79 0.63 0.53 0.47
0.13 0.22 0.02 0.03 0.05 0.31 0.90 1.03 0.97 0.62 0.37 0.64 0.61 0.43 0.20 0.19 0.14 0.11 0.09 0.06 0.05 0.11 0.22 0.33 0.48 0.57 0.62 0.81 0.89 0.96 1.07 1.24 1.27 1.12 1.07 1.04 0.97 0.96 0.96 0.90 0.75 0.61 0.52 0.50
0.28 0.22 0.08 0.01 0.01 0.03 0.36 0.63 0.65 0.97 0.53 0.44 0.57 0.34 0.26 0.18 0.24 0.20 0.16 0.18 0.17 0.23 0.32 0.42 0.50 0.66 0.84 1.06 1.27 1.23 1.26 1.30 1.39 1.49 1.51 1.44 1.33 1.24 1.14 0.96 0.73 0.62 0.70 0.79
0.46 0.32 0.25 0.06 0.06 0.04 0.10 0.15 0.27 0.63 0.80 0.59 0.88 0.49 0.44 0.38 0.44 0.35 0.41 0.38 0.43 0.41 0.44 0.54 0.63 0.74 0.92 1.07 1.34 1.46 1.50 1.50 1.51 1.42 1.46 1.55 1.53 1.43 1.23 1.05 0.92 0.86 0.89 0.88
0.23 0.47 0.61 0.33 0.12 0.15 0.07 0.06 0.19 0.63 0.95 0.70 0.58 0.62 0.67 0.79 0.81 0.66 0.62 0.60 0.72 0.80 0.72 0.78 0.80 0.83 0.94 1.10 1.31 1.33 1.34 1.42 1.32 1.38 1.22 1.09 1.09 1.06 1.14 1.18 1.12 1.08 0.89 0.65
0.10 0.22 0.31 0.27 0.18 0.16 0.12 0.13 0.23 0.35 0.71 0.82 0.61 0.73 1.05 1.44 1.59 1.35 1.04 0.92 0.92 1.04 1.09 1.06 1.08 1.01 0.95 0.96 1.24 1.46 1.32 1.34 1.51 1.29 1.29 1.17 0.95 0.95 1.04 1.13 0.96 0.70 0.49 0.39
0.03 0.11 0.08 0.15 0.16 0.15 0.10 0.08 0.15 0.29 0.47 0.34 0.34 0.48 0.76 1.17 1.19 1.30 1.26 1.15 0.99 1.06 1.18 1.08 1.16 1.25 0.99 1.13 1.12 1.46 1.47 1.30 1.29 1.41 1.38 1.13 1.17 1.12 0.97 0.79 0.60 0.46 0.33 0.20
0.07 0.13 0.06 0.05 0.06 0.02 0.04 0.01 0.11 0.33 0.33 0.45 0.54 0.70 0.68 0.99 1.16 1.38 1.18 1.14 1.21 1.15 1.09 1.08 1.05 1.31 1.05 1.20 1.20 1.21 1.22 1.16 1.23 1.11 1.30 1.31 1.08 0.88 0.66 0.47 0.33 0.21 0.12 0.07
0.12 0.14 0.09 0.03 0.01 0.04 0.02 0.00 0.05 0.13 0.18 0.35 0.49 0.49 0.42 0.94 1.28 1.31 1.28 1.19 1.16 1.04 1.13 1.22 1.17 1.36 1.28 1.25 1.11 1.05 1.08 1.09 1.10 1.02 0.95 0.88 0.69 0.43 0.28 0.19 0.11 0.06 0.03 0.01
0.12 0.21 0.12 0.04 0.01 0.01 0.00 0.00 0.01 0.10 0.14 0.06 0.10 0.14 0.14 0.30 0.40 0.60 1.14 1.26 1.22 1.13 1.25 1.27 1.39 1.43 1.33 1.15 1.00 0.94 0.93 0.90 0.78 0.68 0.51 0.33 0.20 0.16 0.11 0.07 0.05 0.02 0.00 0.00
0.03 0.14 0.18 0.04 0.03 0.00 0.00 0.00 0.00 0.01 0.10 0.02 0.02 0.04 0.04 0.07 0.16 0.50 0.84 0.91 0.93 1.01 1.06 1.05 1.04 1.00 0.79 0.78 0.60 0.50 0.48 0.38 0.34 0.26 0.14 0.11 0.09 0.06 0.04 0.02 0.00 0.00 0.00 0.00
0.02 0.07 0.09 0.03 0.03 0.00 0.00 0.00 0.00 0.04 0.10 0.01 0.01 0.01 0.00 0.03 0.31 0.51 0.58 0.61 0.69 0.77 0.87 0.85 0.83 0.77 0.67 0.65 0.41 0.32 0.26 0.15 0.10 0.06 0.06 0.04 0.02 0.00 0.00 0.00 0.00 0.00 0.00 0.00
0.00 0.01 0.02 0.02 0.01 0.00 0.00 0.00 0.00 0.01 0.00 0.00 0.00 0.00 0.00 0.00 0.03 0.14 0.23 0.35 0.45 0.47 0.57 0.56 0.42 0.44 0.50 0.41 0.13 0.11 0.08 0.04 0.01 0.00 0.00 0.00 0.00 0.00 0.00 0.00 0.00 0.00 0.00 0.00
0.00 0.00 0.00 0.00 0.00 0.00 0.00 0.00 0.00 0.00 0.00 0.00 0.00 0.00 0.00 0.00 0.00 0.01 0.03 0.06 0.11 0.16 0.19 0.26 0.13 0.09 0.09 0.05 0.05 0.06 0.08 0.05 0.06 0.05 0.02 0.00 0.00 0.00 0.00 0.00 0.01 0.00 0.00 0.00
0.00 0.00 0.00 0.00 0.00 0.00 0.00 0.00 0.00 0.00 0.00 0.00 0.00 0.00 0.00 0.00 0.00 0.00 0.00 0.00 0.02 0.04 0.07 0.13 0.09 0.03 0.03 0.02 0.03 0.06 0.08 0.06 0.07 0.10 0.07 0.02 0.01 0.00 0.00 0.00 0.00 0.00 0.00 0.00
0.00 0.00 0.00 0.00 0.00 0.00 0.00 0.00 0.00 0.00 0.00 0.00 0.00 0.00 0.00 0.00 0.00 0.00 0.00 0.00 0.00 0.01 0.02 0.05 0.06 0.04 0.02 0.01 0.02 0.02 0.05 0.07 0.14 0.13 0.05 0.01 0.01 0.01 0.00 0.00 0.00 0.00 0.00 0.00
0.00 0.00 0.00 0.00 0.00 0.00 0.00 0.00 0.00 0.00 0.00 0.00 0.00 0.00 0.00 0.00 0.00 0.00 0.00 0.00 0.00 0.01 0.01 0.01 0.02 0.01 0.01 0.01 0.01 0.01 0.02 0.06 0.11 0.09 0.05 0.03 0.01 0.00 0.00 0.00 0.00 0.00 0.00 0.00